Weather History for Shelton, WA

Change the Weather History Date:

Saturday, March 2, 2013

  Actual Average Record
Temperature  
Mean Temperature 46 °F -  
Max Temperature 54 °F 51 °F 64 °F (1981)
Min Temperature 36 °F 35 °F 23 °F (1962)
Degree Days  
Heating Degree Days 20    
Moisture  
Dew Point 45 °F    
Average Humidity 92    
Maximum Humidity 100    
Minimum Humidity 77    
Precipitation  
Precipitation 0.10 in - - ()
Sea Level Pressure  
Sea Level Pressure 30.16 in    
Wind  
Wind Speed 8 mph (SW)    
Max Wind Speed 18 mph    
Max Gust Speed 25 mph    
Visibility 10 miles    
Events Rain    
Averages and records for this station are not official NWS values.
T = Trace of Precipitation, MM = Missing Value Source: NWS Daily Summary

Daily Weather History Graph

Daily Weather History Graph

Search for Another Location

Airport:

Trip Planner

Search our weather history database for the weather conditions in past years. The results will help you decide how hot, cold, wet, or windy it might be!

Date:

Astronomy

Mar. 02, 2013 Rise Set
Actual Time 6:50 AM PST 5:59 PM PST
Civil Twilight 6:19 AM PST 6:30 PM PST
Nautical Twilight 5:44 AM PST 7:05 PM PST
Astronomical Twilight 5:08 AM PST 7:41 PM PST
Moon No Moon Rise 8:58 AM PST (3/2)
Length of Visible Light 12h 11m
Length of Day
11h 09m
Waning Gibbous, 73% of the Moon is Illuminated
Mar 2
Waning Gibbous
Mar 4
Last Quarter
Mar 11
New
Mar 19
First Quarter
Mar 27
Full

Hourly Weather History & Observations

Time (PST) Temp. Windchill Dew Point Humidity Pressure Visibility Wind Dir Wind Speed Gust Speed Precip Events Conditions
12:53 AM 48.9 °F - 48.0 °F 97% 30.26 in 10.0 mi WSW 4.6 mph - 0.00 in   Overcast
1:00 AM 50.0 °F - 48.2 °F 94% 30.26 in 10.0 mi WSW 5.8 mph - N/A   Overcast
1:40 AM 50.0 °F - 48.2 °F 94% 30.25 in 10.0 mi WSW 4.6 mph - N/A   Overcast
1:53 AM 48.9 °F - 48.0 °F 97% 30.26 in 10.0 mi SW 3.5 mph - N/A   Overcast
2:12 AM 48.2 °F - 48.2 °F 100% 30.24 in 10.0 mi SSW 5.8 mph - N/A   Overcast
2:53 AM 48.0 °F - 46.9 °F 96% 30.24 in 10.0 mi Calm Calm - N/A   Overcast
3:41 AM 46.4 °F - 46.4 °F 100% 30.21 in 10.0 mi Calm Calm - N/A   Overcast
3:53 AM 48.0 °F - 46.9 °F 96% 30.22 in 10.0 mi WSW 3.5 mph - N/A   Overcast
4:53 AM 48.9 °F - 48.0 °F 97% 30.20 in 10.0 mi WSW 4.6 mph - N/A   Overcast
5:53 AM 48.9 °F - 46.9 °F 93% 30.19 in 10.0 mi SW 4.6 mph - N/A   Overcast
6:53 AM 48.0 °F - 46.9 °F 96% 30.18 in 10.0 mi SW 5.8 mph - N/A   Overcast
7:18 AM 48.2 °F - 46.4 °F 93% 30.17 in 10.0 mi SSW 5.8 mph - N/A   Overcast
7:53 AM 48.9 °F - 46.9 °F 93% 30.17 in 10.0 mi SW 8.1 mph - N/A   Overcast
8:53 AM 50.0 °F - 48.0 °F 93% 30.17 in 10.0 mi SSW 9.2 mph - N/A   Overcast
9:51 AM 51.8 °F - 48.2 °F 88% 30.14 in 10.0 mi SW 10.4 mph - N/A   Overcast
9:53 AM 51.1 °F - 48.0 °F 89% 30.15 in 10.0 mi SW 11.5 mph - N/A   Overcast
10:53 AM 53.1 °F - 48.0 °F 83% 30.13 in 10.0 mi SSW 10.4 mph - N/A   Overcast
11:53 AM 54.0 °F - 46.9 °F 77% 30.12 in 10.0 mi SSW 12.7 mph 20.7 mph N/A   Overcast
12:53 PM 51.1 °F - 50.0 °F 96% 30.10 in 10.0 mi SW 11.5 mph - 0.08 in Rain Light Rain
1:26 PM 51.8 °F - 48.2 °F 88% 30.09 in 10.0 mi SW 13.8 mph 24.2 mph 0.00 in Rain Light Rain
1:39 PM 51.8 °F - 48.2 °F 88% 30.08 in 10.0 mi SW 13.8 mph 20.7 mph 0.01 in   Overcast
1:53 PM 51.1 °F - 48.9 °F 92% 30.09 in 10.0 mi SSW 12.7 mph - 0.01 in Rain Light Rain
2:28 PM 51.8 °F - 48.2 °F 88% 30.08 in 10.0 mi SW 13.8 mph 21.9 mph 0.01 in   Overcast
2:36 PM 50.0 °F - 48.2 °F 94% 30.07 in 10.0 mi SW 15.0 mph - 0.01 in   Overcast
2:48 PM 50.0 °F - 46.4 °F 87% 30.08 in 10.0 mi SW 17.3 mph 23.0 mph 0.01 in   Overcast
2:53 PM 48.9 °F - 45.0 °F 86% 30.09 in 10.0 mi SW 18.4 mph 24.2 mph 0.01 in   Overcast
3:02 PM 48.2 °F - 44.6 °F 87% 30.08 in 10.0 mi SW 18.4 mph 25.3 mph N/A   Overcast
3:53 PM 45.0 °F 37.9 °F 42.1 °F 90% 30.10 in 10.0 mi SW 16.1 mph 24.2 mph 0.00 in   Overcast
4:53 PM 44.1 °F 36.5 °F 39.9 °F 85% 30.11 in 10.0 mi SW 17.3 mph 24.2 mph N/A   Mostly Cloudy
5:53 PM 42.1 °F 35.7 °F 37.9 °F 85% 30.14 in 10.0 mi WSW 11.5 mph - N/A   Scattered Clouds
6:53 PM 41.0 °F 33.1 °F 37.9 °F 89% 30.16 in 10.0 mi SW 15.0 mph - N/A   Clear
7:53 PM 39.0 °F 31.0 °F 37.0 °F 93% 30.17 in 10.0 mi SW 13.8 mph - N/A   Clear
8:53 PM 39.0 °F 31.0 °F 37.0 °F 93% 30.18 in 10.0 mi WSW 13.8 mph - N/A   Clear
9:53 PM 37.9 °F 30.0 °F 36.0 °F 93% 30.19 in 10.0 mi WSW 12.7 mph - N/A   Clear
10:53 PM 37.0 °F 29.8 °F 35.1 °F 93% 30.20 in 10.0 mi WSW 10.4 mph - N/A   Clear
11:53 PM 36.0 °F 33.3 °F 34.0 °F 93% 30.21 in 10.0 mi WSW 3.5 mph - N/A   Clear